Time,TemperatureF,DewpointF,PressureIn,WindDirection,WindDirectionDegrees,WindSpeedMPH,WindSpeedGustMPH,Humidity,HourlyPrecipIn,Conditions,Clouds,dailyrainin,SoftwareType,DateUTC
2013-07-16 00:02:00,76.1,73.3,30.36,South,180,0.0,0.0,91,0.00,,SKC,0.00,VWS V14.01,2013-07-16 05:02:00,
2013-07-16 00:07:00,76.1,73.3,30.36,South,180,0.0,0.0,91,0.00,,SKC,0.00,VWS V14.01,2013-07-16 05:07:00,
2013-07-16 00:12:00,76.1,73.3,30.36,West,270,0.0,0.0,91,0.00,,SKC,0.00,VWS V14.01,2013-07-16 05:12:00,
2013-07-16 00:17:00,76.1,73.3,30.33,West,270,0.0,0.0,91,0.00,,SKC,0.00,VWS V14.01,2013-07-16 05:17:00,
2013-07-16 00:22:00,75.9,73.4,30.33,West,270,0.0,0.0,92,0.00,,SKC,0.00,VWS V14.01,2013-07-16 05:22:00,
2013-07-16 00:27:00,75.9,73.4,30.33,West,270,0.0,0.0,92,0.00,,SKC,0.00,VWS V14.01,2013-07-16 05:27:00,
2013-07-16 00:32:00,75.7,73.2,30.36,West,270,0.0,0.0,92,0.00,,SKC,0.00,VWS V14.01,2013-07-16 05:32:00,
2013-07-16 00:37:00,75.7,73.2,30.36,West,270,0.0,0.0,92,0.00,,SKC,0.00,VWS V14.01,2013-07-16 05:37:00,
2013-07-16 00:42:00,75.7,73.2,30.36,West,270,0.0,0.0,92,0.00,,SKC,0.00,VWS V14.01,2013-07-16 05:42:00,
2013-07-16 00:47:00,75.9,73.4,30.36,West,270,0.0,0.0,92,0.00,,SKC,0.00,VWS V14.01,2013-07-16 05:47:00,
2013-07-16 00:52:00,75.7,73.2,30.36,West,270,0.0,0.0,92,0.00,,SKC,0.00,VWS V14.01,2013-07-16 05:52:00,
2013-07-16 00:57:00,75.7,73.2,30.36,West,270,0.0,0.0,92,0.00,,SKC,0.00,VWS V14.01,2013-07-16 05:57:00,
2013-07-16 01:02:00,75.6,73.1,30.36,West,270,0.0,0.0,92,0.00,,SKC,0.00,VWS V14.01,2013-07-16 06:02:00,
2013-07-16 01:07:00,75.6,73.1,30.36,West,270,0.0,0.0,92,0.00,,SKC,0.00,VWS V14.01,2013-07-16 06:07:00,
2013-07-16 01:12:00,75.4,72.9,30.36,West,270,0.0,0.0,92,0.00,,SKC,0.00,VWS V14.01,2013-07-16 06:12:00,
2013-07-16 01:17:00,75.4,72.9,30.36,West,270,0.0,0.0,92,0.00,,SKC,0.00,VWS V14.01,2013-07-16 06:17:00,
2013-07-16 01:22:00,75.4,72.9,30.36,West,270,0.0,0.0,92,0.00,,SKC,0.00,VWS V14.01,2013-07-16 06:22:00,
2013-07-16 01:27:00,75.4,72.9,30.36,West,270,0.0,0.0,92,0.00,,SKC,0.00,VWS V14.01,2013-07-16 06:27:00,
2013-07-16 01:32:00,75.4,72.9,30.36,West,270,0.0,0.0,92,0.00,,SKC,0.00,VWS V14.01,2013-07-16 06:32:00,
2013-07-16 01:37:00,75.0,72.9,30.36,West,270,0.0,0.0,93,0.00,,SKC,0.00,VWS V14.01,2013-07-16 06:37:00,
2013-07-16 01:42:00,75.0,72.9,30.36,West,270,0.0,0.0,93,0.00,,SKC,0.00,VWS V14.01,2013-07-16 06:42:00,
2013-07-16 01:47:00,75.0,72.9,30.33,West,270,0.0,0.0,93,0.00,,SKC,0.00,VWS V14.01,2013-07-16 06:47:00,
2013-07-16 01:52:00,75.0,72.9,30.33,West,270,0.0,0.0,93,0.00,,SKC,0.00,VWS V14.01,2013-07-16 06:52:00,
2013-07-16 01:57:00,75.0,72.9,30.33,West,270,0.0,0.0,93,0.00,,SKC,0.00,VWS V14.01,2013-07-16 06:57:00,
2013-07-16 02:02:00,74.7,72.8,30.33,SSE,158,0.0,0.0,94,0.00,,SKC,0.00,VWS V14.01,2013-07-16 07:02:00,
2013-07-16 02:07:00,74.5,72.6,30.33,SSE,158,0.0,0.0,94,0.00,,SKC,0.00,VWS V14.01,2013-07-16 07:07:00,
2013-07-16 02:12:00,74.5,72.6,30.33,SSE,158,0.0,0.0,94,0.00,,SKC,0.00,VWS V14.01,2013-07-16 07:12:00,
2013-07-16 02:17:00,74.3,72.5,30.36,SSE,158,0.0,0.0,94,0.00,,SKC,0.00,VWS V14.01,2013-07-16 07:17:00,
2013-07-16 02:22:00,74.3,72.5,30.36,SSE,158,0.0,0.0,94,0.00,,SKC,0.00,VWS V14.01,2013-07-16 07:22:00,
2013-07-16 02:27:00,74.3,72.5,30.36,SSE,158,0.0,0.0,94,0.00,,SKC,0.00,VWS V14.01,2013-07-16 07:27:00,
2013-07-16 02:32:00,74.3,72.5,30.33,SSE,158,0.0,0.0,94,0.00,,SKC,0.00,VWS V14.01,2013-07-16 07:32:00,
2013-07-16 02:37:00,74.1,72.3,30.33,SSE,158,0.0,0.0,94,0.00,,SKC,0.00,VWS V14.01,2013-07-16 07:37:00,
2013-07-16 02:42:00,74.1,72.3,30.33,SSE,158,0.0,0.0,94,0.00,,SKC,0.00,VWS V14.01,2013-07-16 07:42:00,
2013-07-16 02:47:00,74.1,72.3,30.36,SSE,158,0.0,0.0,94,0.00,,SKC,0.00,VWS V14.01,2013-07-16 07:47:00,
2013-07-16 02:52:00,74.1,72.3,30.36,SSE,158,0.0,0.0,94,0.00,,SKC,0.00,VWS V14.01,2013-07-16 07:52:00,
2013-07-16 02:57:00,74.1,72.6,30.36,SSE,158,0.0,0.0,95,0.00,,SKC,0.00,VWS V14.01,2013-07-16 07:57:00,
2013-07-16 03:02:00,74.1,72.6,30.33,SSE,158,0.0,0.0,95,0.00,,SKC,0.00,VWS V14.01,2013-07-16 08:02:00,
2013-07-16 03:07:00,74.1,72.6,30.33,SSE,158,0.0,0.0,95,0.00,,SKC,0.00,VWS V14.01,2013-07-16 08:07:00,
2013-07-16 03:12:00,74.1,72.6,30.33,SSE,158,0.0,0.0,95,0.00,,SKC,0.00,VWS V14.01,2013-07-16 08:12:00,
2013-07-16 03:17:00,73.9,72.4,30.33,SSE,158,0.0,0.0,95,0.00,,SKC,0.00,VWS V14.01,2013-07-16 08:17:00,
2013-07-16 03:22:00,73.9,72.4,30.33,SSE,158,0.0,0.0,95,0.00,,SKC,0.00,VWS V14.01,2013-07-16 08:22:00,
2013-07-16 03:27:00,73.9,72.4,30.33,SSE,158,0.0,0.0,95,0.00,,SKC,0.00,VWS V14.01,2013-07-16 08:27:00,
2013-07-16 03:32:00,73.9,72.4,30.36,SSE,158,0.0,0.0,95,0.00,,SKC,0.00,VWS V14.01,2013-07-16 08:32:00,
2013-07-16 03:37:00,73.8,72.2,30.36,SSE,158,0.0,0.0,95,0.00,,SKC,0.00,VWS V14.01,2013-07-16 08:37:00,
2013-07-16 03:42:00,73.8,72.2,30.36,SSE,158,0.0,0.0,95,0.00,,SKC,0.00,VWS V14.01,2013-07-16 08:42:00,
2013-07-16 03:47:00,73.6,72.1,30.36,SSE,158,0.0,0.0,95,0.00,,SKC,0.00,VWS V14.01,2013-07-16 08:47:00,
2013-07-16 03:52:00,73.6,72.1,30.36,SSE,158,0.0,0.0,95,0.00,,SKC,0.00,VWS V14.01,2013-07-16 08:52:00,
2013-07-16 03:57:00,73.4,71.9,30.36,SSE,158,0.0,0.0,95,0.00,,SKC,0.00,VWS V14.01,2013-07-16 08:57:00,
2013-07-16 04:02:00,73.4,71.9,30.36,SSE,158,0.0,0.0,95,0.00,,SKC,0.00,VWS V14.01,2013-07-16 09:02:00,
2013-07-16 04:07:00,73.4,71.9,30.36,SSE,158,0.0,0.0,95,0.00,,SKC,0.00,VWS V14.01,2013-07-16 09:07:00,
2013-07-16 04:12:00,73.4,71.9,30.36,SSE,158,0.0,0.0,95,0.00,,SKC,0.00,VWS V14.01,2013-07-16 09:12:00,
2013-07-16 04:17:00,73.2,71.7,30.36,SSE,158,0.0,0.0,95,0.00,,SKC,0.00,VWS V14.01,2013-07-16 09:17:00,
2013-07-16 04:22:00,73.2,71.7,30.36,SSE,158,0.0,0.0,95,0.00,,SKC,0.00,VWS V14.01,2013-07-16 09:22:00,
2013-07-16 04:27:00,73.0,71.5,30.36,SSE,158,0.0,0.0,95,0.00,,SKC,0.00,VWS V14.01,2013-07-16 09:27:00,
2013-07-16 04:32:00,73.0,71.5,30.36,SSE,158,0.0,0.0,95,0.00,,SKC,0.00,VWS V14.01,2013-07-16 09:32:00,
2013-07-16 04:37:00,73.0,71.5,30.36,SSE,158,0.0,0.0,95,0.00,,SKC,0.00,VWS V14.01,2013-07-16 09:37:00,
2013-07-16 04:42:00,73.0,71.5,30.36,SSE,158,0.0,0.0,95,0.00,,SKC,0.00,VWS V14.01,2013-07-16 09:42:00,
2013-07-16 04:48:00,72.9,71.7,30.36,SSE,158,0.0,0.0,96,0.00,,SKC,0.00,VWS V14.01,2013-07-16 09:48:00,
2013-07-16 04:53:00,72.9,71.7,30.36,SSE,158,0.0,0.0,96,0.00,,SKC,0.00,VWS V14.01,2013-07-16 09:53:00,
2013-07-16 04:58:00,72.9,71.7,30.36,SSE,158,0.0,0.0,96,0.00,,SKC,0.00,VWS V14.01,2013-07-16 09:58:00,
2013-07-16 05:03:00,73.0,71.8,30.36,SSE,158,0.0,0.0,96,0.00,,SKC,0.00,VWS V14.01,2013-07-16 10:03:00,
2013-07-16 05:08:00,72.9,71.7,30.36,SSE,158,0.0,0.0,96,0.00,,SKC,0.00,VWS V14.01,2013-07-16 10:08:00,
2013-07-16 05:13:00,72.9,71.7,30.36,SSE,158,0.0,0.0,96,0.00,,SKC,0.00,VWS V14.01,2013-07-16 10:13:00,
2013-07-16 05:18:00,72.9,71.7,30.33,SSE,158,0.0,0.0,96,0.00,,SKC,0.00,VWS V14.01,2013-07-16 10:18:00,
2013-07-16 05:23:00,72.9,71.7,30.33,SSE,158,0.0,0.0,96,0.00,,SKC,0.00,VWS V14.01,2013-07-16 10:23:00,
2013-07-16 05:28:00,72.9,71.7,30.33,SSE,158,0.0,0.0,96,0.00,,SKC,0.00,VWS V14.01,2013-07-16 10:28:00,
2013-07-16 05:33:00,72.7,71.5,30.36,SSE,158,0.0,0.0,96,0.00,,SKC,0.00,VWS V14.01,2013-07-16 10:33:00,
2013-07-16 05:38:00,72.7,71.5,30.36,SSE,158,0.0,0.0,96,0.00,,SKC,0.00,VWS V14.01,2013-07-16 10:38:00,
2013-07-16 05:43:00,72.7,71.5,30.36,SSE,158,0.0,0.0,96,0.00,,SKC,0.00,VWS V14.01,2013-07-16 10:43:00,
2013-07-16 05:48:00,72.5,71.3,30.39,SSE,158,0.0,0.0,96,0.00,,SKC,0.00,VWS V14.01,2013-07-16 10:48:00,
2013-07-16 05:53:00,72.5,71.3,30.39,SSE,158,0.0,0.0,96,0.00,,SKC,0.00,VWS V14.01,2013-07-16 10:53:00,
2013-07-16 05:58:00,72.5,71.3,30.39,SSE,158,0.0,0.0,96,0.00,,SKC,0.00,VWS V14.01,2013-07-16 10:58:00,
2013-07-16 06:03:00,72.5,71.3,30.39,SSE,158,0.0,0.0,96,0.00,,SKC,0.00,VWS V14.01,2013-07-16 11:03:00,
2013-07-16 06:08:00,72.5,71.3,30.39,SSE,158,0.0,0.0,96,0.00,,SKC,0.00,VWS V14.01,2013-07-16 11:08:00,
2013-07-16 06:13:00,72.5,71.3,30.39,WSW,248,0.0,0.0,96,0.00,,SKC,0.00,VWS V14.01,2013-07-16 11:13:00,
2013-07-16 06:18:00,72.5,71.3,30.39,WSW,248,0.0,0.0,96,0.00,,SKC,0.00,VWS V14.01,2013-07-16 11:18:00,
2013-07-16 06:23:00,72.7,71.5,30.39,WSW,248,0.0,0.0,96,0.00,,SKC,0.00,VWS V14.01,2013-07-16 11:23:00,
2013-07-16 06:28:00,72.7,71.5,30.39,WSW,248,0.0,0.0,96,0.00,,SKC,0.00,VWS V14.01,2013-07-16 11:28:00,
2013-07-16 06:33:00,72.9,71.7,30.39,WSW,248,0.0,0.0,96,0.00,,SKC,0.00,VWS V14.01,2013-07-16 11:33:00,
2013-07-16 06:38:00,73.2,72.0,30.39,WSW,248,0.0,0.0,96,0.00,,SKC,0.00,VWS V14.01,2013-07-16 11:38:00,
2013-07-16 06:43:00,73.2,72.0,30.39,WSW,248,0.0,0.0,96,0.00,,SKC,0.00,VWS V14.01,2013-07-16 11:43:00,
2013-07-16 06:48:00,73.6,72.4,30.39,WSW,248,0.0,0.0,96,0.00,,SKC,0.00,VWS V14.01,2013-07-16 11:48:00,
2013-07-16 06:53:00,73.9,72.7,30.39,WSW,248,0.0,0.0,96,0.00,,SKC,0.00,VWS V14.01,2013-07-16 11:53:00,
2013-07-16 06:58:00,74.1,72.9,30.39,WSW,248,0.0,0.0,96,0.00,,SKC,0.00,VWS V14.01,2013-07-16 11:58:00,
2013-07-16 07:03:00,74.3,73.1,30.39,NW,315,0.0,0.0,96,0.00,,SKC,0.00,VWS V14.01,2013-07-16 12:03:00,
2013-07-16 07:08:00,74.5,73.3,30.39,NW,315,0.0,0.0,96,0.00,,SKC,0.00,VWS V14.01,2013-07-16 12:08:00,
2013-07-16 07:13:00,74.7,73.4,30.39,South,180,0.0,0.0,96,0.00,,SKC,0.00,VWS V14.01,2013-07-16 12:13:00,
2013-07-16 07:18:00,75.0,73.5,30.39,South,180,0.0,0.0,95,0.00,,SKC,0.00,VWS V14.01,2013-07-16 12:18:00,
2013-07-16 07:23:00,75.2,73.7,30.39,South,180,0.0,0.0,95,0.00,,SKC,0.00,VWS V14.01,2013-07-16 12:23:00,
2013-07-16 07:28:00,75.4,73.8,30.39,South,180,0.0,0.0,95,0.00,,SKC,0.00,VWS V14.01,2013-07-16 12:28:00,
2013-07-16 07:33:00,75.7,74.2,30.39,South,180,0.0,0.0,95,0.00,,SKC,0.00,VWS V14.01,2013-07-16 12:33:00,
2013-07-16 07:38:00,75.9,74.4,30.39,South,180,0.0,0.0,95,0.00,,SKC,0.00,VWS V14.01,2013-07-16 12:38:00,
2013-07-16 07:43:00,76.3,74.8,30.39,SSE,158,0.0,0.0,95,0.00,,SKC,0.00,VWS V14.01,2013-07-16 12:43:00,
2013-07-16 07:48:00,76.6,75.1,30.41,ESE,112,0.0,0.0,95,0.00,,SKC,0.00,VWS V14.01,2013-07-16 12:48:00,
2013-07-16 07:53:00,76.8,75.0,30.41,ESE,112,0.0,0.0,94,0.00,,SKC,0.00,VWS V14.01,2013-07-16 12:53:00,
2013-07-16 07:58:00,77.0,75.1,30.41,SE,135,0.0,0.0,94,0.00,,SKC,0.00,VWS V14.01,2013-07-16 12:58:00,
2013-07-16 08:03:00,77.4,75.2,30.39,South,180,0.0,0.0,93,0.00,,SKC,0.00,VWS V14.01,2013-07-16 13:03:00,
2013-07-16 08:08:00,77.5,75.4,30.39,ESE,112,0.0,0.0,93,0.00,,SKC,0.00,VWS V14.01,2013-07-16 13:08:00,
2013-07-16 08:13:00,77.9,75.7,30.39,SSE,158,0.0,0.0,93,0.00,,SKC,0.00,VWS V14.01,2013-07-16 13:13:00,
2013-07-16 08:18:00,78.1,75.6,30.39,SE,135,0.0,0.0,92,0.00,,SKC,0.00,VWS V14.01,2013-07-16 13:18:00,
2013-07-16 08:23:00,78.3,75.8,30.39,South,180,0.0,0.0,92,0.00,,SKC,0.00,VWS V14.01,2013-07-16 13:23:00,
2013-07-16 08:28:00,78.4,75.6,30.39,South,180,0.0,0.0,91,0.00,,SKC,0.00,VWS V14.01,2013-07-16 13:28:00,
2013-07-16 08:33:00,78.6,75.8,30.41,South,180,0.0,0.0,91,0.00,,SKC,0.00,VWS V14.01,2013-07-16 13:33:00,
2013-07-16 08:38:00,78.8,75.3,30.41,SSE,158,0.0,0.0,89,0.00,,SKC,0.00,VWS V14.01,2013-07-16 13:38:00,
2013-07-16 08:43:00,79.0,75.1,30.41,SSE,158,0.0,0.0,88,0.00,,SKC,0.00,VWS V14.01,2013-07-16 13:43:00,
2013-07-16 08:48:00,79.3,75.5,30.41,SW,225,0.0,0.0,88,0.00,,SKC,0.00,VWS V14.01,2013-07-16 13:48:00,
2013-07-16 08:53:00,79.5,75.7,30.41,SSE,158,0.0,0.0,88,0.00,,SKC,0.00,VWS V14.01,2013-07-16 13:53:00,
2013-07-16 08:58:00,79.9,76.0,30.41,SSE,158,0.0,0.0,88,0.00,,SKC,0.00,VWS V14.01,2013-07-16 13:58:00,
2013-07-16 09:03:00,79.9,75.7,30.41,East,90,0.0,0.0,87,0.00,,SKC,0.00,VWS V14.01,2013-07-16 14:03:00,
2013-07-16 09:08:00,80.2,75.7,30.41,South,180,0.0,0.0,86,0.00,,SKC,0.00,VWS V14.01,2013-07-16 14:08:00,
2013-07-16 09:13:00,80.4,75.8,30.41,East,90,0.0,0.0,86,0.00,,SKC,0.00,VWS V14.01,2013-07-16 14:13:00,
2013-07-16 09:18:00,80.8,75.5,30.41,SSW,202,0.0,0.0,84,0.00,,SKC,0.00,VWS V14.01,2013-07-16 14:18:00,
2013-07-16 09:23:00,81.0,75.3,30.41,SE,135,0.0,0.0,83,0.00,,SKC,0.00,VWS V14.01,2013-07-16 14:23:00,
2013-07-16 09:28:00,81.1,75.1,30.41,WSW,248,0.0,0.0,82,0.00,,SKC,0.00,VWS V14.01,2013-07-16 14:28:00,
2013-07-16 09:33:00,81.5,75.5,30.41,ESE,112,0.0,0.0,82,0.00,,SKC,0.00,VWS V14.01,2013-07-16 14:33:00,
2013-07-16 09:38:00,81.7,75.7,30.41,SE,135,0.0,0.0,82,0.00,,SKC,0.00,VWS V14.01,2013-07-16 14:38:00,
2013-07-16 09:43:00,82.0,74.9,30.41,East,90,0.0,0.0,79,0.00,,SKC,0.00,VWS V14.01,2013-07-16 14:43:00,
2013-07-16 09:48:00,82.2,74.7,30.41,SSE,158,0.0,0.0,78,0.00,,SKC,0.00,VWS V14.01,2013-07-16 14:48:00,
2013-07-16 09:53:00,82.2,75.1,30.41,WSW,248,0.0,0.0,79,0.00,,SKC,0.00,VWS V14.01,2013-07-16 14:53:00,
2013-07-16 09:58:00,82.8,75.2,30.41,SSE,158,0.0,0.0,78,0.00,,SKC,0.00,VWS V14.01,2013-07-16 14:58:00,
2013-07-16 10:03:00,82.8,74.0,30.41,SSE,158,0.0,0.0,75,0.00,,SKC,0.00,VWS V14.01,2013-07-16 15:03:00,
2013-07-16 10:08:00,82.9,74.6,30.41,SSW,202,0.0,0.0,76,0.00,,SKC,0.00,VWS V14.01,2013-07-16 15:08:00,
2013-07-16 10:13:00,83.3,74.2,30.41,SE,135,0.0,0.0,74,0.00,,SKC,0.00,VWS V14.01,2013-07-16 15:13:00,
2013-07-16 10:18:00,83.7,75.3,30.41,SSE,158,0.0,0.0,76,0.00,,SKC,0.00,VWS V14.01,2013-07-16 15:18:00,
2013-07-16 10:23:00,84.0,75.6,30.41,East,90,0.0,0.0,76,0.00,,SKC,0.00,VWS V14.01,2013-07-16 15:23:00,
2013-07-16 10:28:00,84.4,74.8,30.41,South,180,0.0,0.0,73,0.00,,SKC,0.00,VWS V14.01,2013-07-16 15:28:00,
2013-07-16 10:33:00,84.7,75.1,30.41,SSW,202,0.0,0.0,73,0.00,,SKC,0.00,VWS V14.01,2013-07-16 15:33:00,
2013-07-16 10:38:00,84.7,75.1,30.41,SSE,158,0.0,0.0,73,0.00,,SKC,0.00,VWS V14.01,2013-07-16 15:38:00,
2013-07-16 10:43:00,85.6,75.6,30.41,SE,135,0.0,0.0,72,0.00,,SKC,0.00,VWS V14.01,2013-07-16 15:43:00,
2013-07-16 10:48:00,86.4,76.3,30.41,South,180,0.0,0.0,72,0.00,,SKC,0.00,VWS V14.01,2013-07-16 15:48:00,
2013-07-16 10:53:00,86.7,75.8,30.41,SE,135,0.0,0.0,70,0.00,,SKC,0.00,VWS V14.01,2013-07-16 15:53:00,
2013-07-16 10:58:00,86.7,75.3,30.41,SE,135,0.0,0.0,69,0.00,,SKC,0.00,VWS V14.01,2013-07-16 15:58:00,
2013-07-16 11:03:00,88.3,76.0,30.41,SE,135,0.0,0.0,67,0.00,,SKC,0.00,VWS V14.01,2013-07-16 16:03:00,
2013-07-16 11:08:00,89.6,76.7,30.41,SE,135,0.0,0.0,66,0.00,,SKC,0.00,VWS V14.01,2013-07-16 16:08:00,
2013-07-16 11:13:00,90.3,75.5,30.41,SE,135,0.0,0.0,62,0.00,,SKC,0.00,VWS V14.01,2013-07-16 16:13:00,
2013-07-16 11:18:00,91.9,76.6,30.41,SE,135,0.0,0.0,61,0.00,,SKC,0.00,VWS V14.01,2013-07-16 16:18:00,
2013-07-16 11:23:00,92.7,76.2,30.41,SSE,158,0.0,0.0,59,0.00,,SKC,0.00,VWS V14.01,2013-07-16 16:23:00,
2013-07-16 11:28:00,93.2,76.8,30.41,East,90,0.0,0.0,59,0.00,,SKC,0.00,VWS V14.01,2013-07-16 16:28:00,
2013-07-16 11:33:00,93.9,76.4,30.41,South,180,0.0,0.0,57,0.00,,SKC,0.00,VWS V14.01,2013-07-16 16:33:00,
2013-07-16 11:38:00,94.6,74.9,30.41,SSE,158,0.0,0.0,53,0.00,,SKC,0.00,VWS V14.01,2013-07-16 16:38:00,
2013-07-16 11:43:00,95.7,74.7,30.41,SSE,158,0.0,0.0,51,0.00,,SKC,0.00,VWS V14.01,2013-07-16 16:43:00,
2013-07-16 11:48:00,95.4,72.6,30.41,South,180,0.0,0.0,48,0.00,,SKC,0.00,VWS V14.01,2013-07-16 16:48:00,
2013-07-16 11:53:00,96.1,75.0,30.41,ESE,112,0.0,0.0,51,0.00,,SKC,0.00,VWS V14.01,2013-07-16 16:53:00,
2013-07-16 11:58:00,96.4,75.4,30.41,SE,135,0.0,0.0,51,0.00,,SKC,0.00,VWS V14.01,2013-07-16 16:58:00,
2013-07-16 12:03:00,96.4,74.2,30.41,NNE,22,0.0,0.0,49,0.00,,SKC,0.00,VWS V14.01,2013-07-16 17:03:00,
2013-07-16 12:08:00,97.0,74.1,30.41,SSE,158,0.0,0.0,48,0.00,,SKC,0.00,VWS V14.01,2013-07-16 17:08:00,
2013-07-16 12:13:00,96.4,72.9,30.41,SE,135,0.0,0.0,47,0.00,,SKC,0.00,VWS V14.01,2013-07-16 17:13:00,
2013-07-16 12:18:00,96.8,72.6,30.41,SSW,202,0.0,0.0,46,0.00,,SKC,0.00,VWS V14.01,2013-07-16 17:18:00,
2013-07-16 12:23:00,95.7,71.6,30.41,SSW,202,0.0,0.0,46,0.00,,SKC,0.00,VWS V14.01,2013-07-16 17:23:00,
2013-07-16 12:28:00,96.1,72.0,30.41,SSE,158,0.0,0.0,46,0.00,,SKC,0.00,VWS V14.01,2013-07-16 17:28:00,
2013-07-16 12:33:00,95.9,73.7,30.41,SSE,158,0.0,0.0,49,0.00,,SKC,0.00,VWS V14.01,2013-07-16 17:33:00,
2013-07-16 12:38:00,96.4,73.6,30.41,SE,135,0.0,0.0,48,0.00,,SKC,0.00,VWS V14.01,2013-07-16 17:38:00,
2013-07-16 12:43:00,94.8,72.1,30.41,WSW,248,0.0,0.0,48,0.00,,SKC,0.00,VWS V14.01,2013-07-16 17:43:00,
2013-07-16 12:48:00,93.6,72.7,30.41,SW,225,0.0,0.0,51,0.00,,SKC,0.00,VWS V14.01,2013-07-16 17:48:00,
2013-07-16 12:53:00,94.1,73.8,30.41,SW,225,0.0,0.0,52,0.00,,SKC,0.00,VWS V14.01,2013-07-16 17:53:00,
2013-07-16 12:58:00,94.3,72.8,30.41,SE,135,0.0,0.0,50,0.00,,SKC,0.00,VWS V14.01,2013-07-16 17:58:00,
2013-07-16 13:03:00,93.7,71.1,30.41,East,90,0.0,0.0,48,0.00,,SKC,0.00,VWS V14.01,2013-07-16 18:03:00,
2013-07-16 13:08:00,93.7,72.3,30.41,SE,135,0.0,0.0,50,0.00,,SKC,0.00,VWS V14.01,2013-07-16 18:08:00,
2013-07-16 13:13:00,93.6,72.7,30.41,East,90,0.0,0.0,51,0.00,,SKC,0.00,VWS V14.01,2013-07-16 18:13:00,
2013-07-16 13:18:00,93.4,72.0,30.41,SE,135,0.0,0.0,50,0.00,,SKC,0.00,VWS V14.01,2013-07-16 18:18:00,
2013-07-16 13:23:00,92.7,71.9,30.41,South,180,0.0,0.0,51,0.00,,SKC,0.00,VWS V14.01,2013-07-16 18:23:00,
2013-07-16 13:28:00,90.7,71.2,30.41,South,180,0.0,0.0,53,0.00,,SKC,0.00,VWS V14.01,2013-07-16 18:28:00,
2013-07-16 13:33:00,90.7,72.8,30.39,SW,225,0.0,0.0,56,0.00,,SKC,0.00,VWS V14.01,2013-07-16 18:33:00,
2013-07-16 13:38:00,91.0,74.2,30.39,SSW,202,0.0,0.0,58,0.00,,SKC,0.00,VWS V14.01,2013-07-16 18:38:00,
2013-07-16 13:43:00,91.2,73.9,30.39,SSE,158,0.0,0.0,57,0.00,,SKC,0.00,VWS V14.01,2013-07-16 18:43:00,
2013-07-16 13:48:00,91.2,73.9,30.39,South,180,0.0,0.0,57,0.00,,SKC,0.00,VWS V14.01,2013-07-16 18:48:00,
2013-07-16 13:53:00,91.2,74.4,30.39,SE,135,0.0,0.0,58,0.00,,SKC,0.00,VWS V14.01,2013-07-16 18:53:00,
2013-07-16 13:58:00,91.6,72.6,30.39,South,180,0.0,0.0,54,0.00,,SKC,0.00,VWS V14.01,2013-07-16 18:58:00,
2013-07-16 14:03:00,90.9,73.5,30.39,SE,135,0.0,0.0,57,0.00,,SKC,0.00,VWS V14.01,2013-07-16 19:03:00,
2013-07-16 14:08:00,91.2,73.9,30.39,South,180,0.0,0.0,57,0.00,,SKC,0.00,VWS V14.01,2013-07-16 19:08:00,
2013-07-16 14:13:00,91.4,74.0,30.39,SE,135,0.0,0.0,57,0.00,,SKC,0.00,VWS V14.01,2013-07-16 19:13:00,
2013-07-16 14:18:00,91.8,73.8,30.39,SE,135,0.0,0.0,56,0.00,,SKC,0.00,VWS V14.01,2013-07-16 19:18:00,
2013-07-16 14:23:00,91.4,73.0,30.39,SSW,202,0.0,0.0,55,0.00,,SKC,0.00,VWS V14.01,2013-07-16 19:23:00,
2013-07-16 14:28:00,91.6,72.6,30.39,SE,135,0.0,0.0,54,0.00,,SKC,0.00,VWS V14.01,2013-07-16 19:28:00,
2013-07-16 14:33:00,92.1,74.2,30.36,SSW,202,0.0,0.0,56,0.00,,SKC,0.00,VWS V14.01,2013-07-16 19:33:00,
2013-07-16 14:38:00,92.1,73.1,30.36,SSW,202,0.0,0.0,54,0.00,,SKC,0.00,VWS V14.01,2013-07-16 19:38:00,
2013-07-16 14:43:00,92.3,73.3,30.36,SSE,158,0.0,0.0,54,0.00,,SKC,0.00,VWS V14.01,2013-07-16 19:43:00,
2013-07-16 14:48:00,92.3,73.3,30.36,SSE,158,0.0,0.0,54,0.00,,SKC,0.00,VWS V14.01,2013-07-16 19:48:00,
2013-07-16 14:53:00,91.8,72.8,30.36,North,0,0.0,0.0,54,0.00,,SKC,0.00,VWS V14.01,2013-07-16 19:53:00,
2013-07-16 14:58:00,92.1,73.6,30.36,SSE,158,0.0,0.0,55,0.00,,SKC,0.00,VWS V14.01,2013-07-16 19:58:00,
2013-07-16 15:03:00,92.7,72.5,30.39,WSW,248,0.0,0.0,52,0.00,,SKC,0.00,VWS V14.01,2013-07-16 20:03:00,
2013-07-16 15:08:00,92.5,72.3,30.39,SW,225,0.0,0.0,52,0.00,,SKC,0.00,VWS V14.01,2013-07-16 20:08:00,
2013-07-16 15:13:00,93.2,72.4,30.39,SE,135,0.0,0.0,51,0.00,,SKC,0.00,VWS V14.01,2013-07-16 20:13:00,
2013-07-16 15:18:00,92.8,72.1,30.36,WNW,292,0.0,0.0,51,0.00,,SKC,0.00,VWS V14.01,2013-07-16 20:18:00,
2013-07-16 15:23:00,93.6,72.1,30.36,NW,315,0.0,0.0,50,0.00,,SKC,0.00,VWS V14.01,2013-07-16 20:23:00,
2013-07-16 15:28:00,93.6,72.7,30.36,SE,135,0.0,0.0,51,0.00,,SKC,0.00,VWS V14.01,2013-07-16 20:28:00,
2013-07-16 15:33:00,93.2,71.8,30.36,SSE,158,0.0,0.0,50,0.00,,SKC,0.00,VWS V14.01,2013-07-16 20:33:00,
2013-07-16 15:38:00,93.2,71.8,30.36,South,180,0.0,0.0,50,0.00,,SKC,0.00,VWS V14.01,2013-07-16 20:38:00,
2013-07-16 15:43:00,93.4,71.4,30.36,SE,135,0.0,0.0,49,0.00,,SKC,0.00,VWS V14.01,2013-07-16 20:43:00,
2013-07-16 15:48:00,92.8,70.9,30.36,SSE,158,0.0,0.0,49,0.00,,SKC,0.00,VWS V14.01,2013-07-16 20:48:00,
2013-07-16 15:53:00,92.8,71.5,30.36,South,180,0.0,0.0,50,0.00,,SKC,0.00,VWS V14.01,2013-07-16 20:53:00,
2013-07-16 15:58:00,92.8,70.9,30.36,SE,135,0.0,0.0,49,0.00,,SKC,0.00,VWS V14.01,2013-07-16 20:58:00,
2013-07-16 16:03:00,93.0,71.6,30.36,SE,135,0.0,0.0,50,0.00,,SKC,0.00,VWS V14.01,2013-07-16 21:03:00,
2013-07-16 16:08:00,92.8,70.9,30.36,SE,135,0.0,0.0,49,0.00,,SKC,0.00,VWS V14.01,2013-07-16 21:08:00,
2013-07-16 16:13:00,93.2,71.2,30.36,ESE,112,0.0,0.0,49,0.00,,SKC,0.00,VWS V14.01,2013-07-16 21:13:00,
2013-07-16 16:18:00,93.6,70.9,30.36,SSE,158,0.0,0.0,48,0.00,,SKC,0.00,VWS V14.01,2013-07-16 21:18:00,
2013-07-16 16:23:00,93.6,70.9,30.36,ESE,112,0.0,0.0,48,0.00,,SKC,0.00,VWS V14.01,2013-07-16 21:23:00,
2013-07-16 16:28:00,93.9,71.9,30.36,South,180,0.0,0.0,49,0.00,,SKC,0.00,VWS V14.01,2013-07-16 21:28:00,
2013-07-16 16:33:00,93.9,70.6,30.36,SE,135,0.0,0.0,47,0.00,,SKC,0.00,VWS V14.01,2013-07-16 21:33:00,
2013-07-16 16:38:00,93.7,70.5,30.36,SW,225,0.0,0.0,47,0.00,,SKC,0.00,VWS V14.01,2013-07-16 21:38:00,
2013-07-16 16:43:00,93.7,69.2,30.36,SE,135,0.0,0.0,45,0.00,,SKC,0.00,VWS V14.01,2013-07-16 21:43:00,
2013-07-16 16:48:00,93.9,70.6,30.36,South,180,0.0,0.0,47,0.00,,SKC,0.00,VWS V14.01,2013-07-16 21:48:00,
2013-07-16 16:53:00,94.3,70.3,30.36,SSW,202,0.0,0.0,46,0.00,,SKC,0.00,VWS V14.01,2013-07-16 21:53:00,
2013-07-16 16:58:00,94.8,70.2,30.36,WSW,248,0.0,0.0,45,0.00,,SKC,0.00,VWS V14.01,2013-07-16 21:58:00,
2013-07-16 17:03:00,95.0,69.7,30.36,SSE,158,0.0,0.0,44,0.00,,SKC,0.00,VWS V14.01,2013-07-16 22:03:00,
2013-07-16 17:08:00,95.5,70.8,30.36,SE,135,0.0,0.0,45,0.00,,SKC,0.00,VWS V14.01,2013-07-16 22:08:00,
2013-07-16 17:13:00,95.7,71.0,30.36,SSW,202,0.0,0.0,45,0.00,,SKC,0.00,VWS V14.01,2013-07-16 22:13:00,
2013-07-16 17:18:00,95.2,69.2,30.36,SE,135,0.0,0.0,43,0.00,,SKC,0.00,VWS V14.01,2013-07-16 22:18:00,
2013-07-16 17:23:00,94.3,69.0,30.36,SSE,158,0.0,0.0,44,0.00,,SKC,0.00,VWS V14.01,2013-07-16 22:23:00,
2013-07-16 17:28:00,94.3,69.7,30.36,SE,135,0.0,0.0,45,0.00,,SKC,0.00,VWS V14.01,2013-07-16 22:28:00,
2013-07-16 17:33:00,94.3,69.7,30.36,SSW,202,0.0,0.0,45,0.00,,SKC,0.00,VWS V14.01,2013-07-16 22:33:00,
2013-07-16 17:38:00,94.3,70.3,30.36,SSE,158,0.0,0.0,46,0.00,,SKC,0.00,VWS V14.01,2013-07-16 22:38:00,
2013-07-16 17:43:00,94.3,70.3,30.36,SSE,158,0.0,0.0,46,0.00,,SKC,0.00,VWS V14.01,2013-07-16 22:43:00,
2013-07-16 17:48:00,94.1,70.8,30.36,South,180,0.0,0.0,47,0.00,,SKC,0.00,VWS V14.01,2013-07-16 22:48:00,
2013-07-16 17:53:00,94.8,71.5,30.36,SE,135,0.0,0.0,47,0.00,,SKC,0.00,VWS V14.01,2013-07-16 22:53:00,
2013-07-16 17:58:00,94.8,70.8,30.36,South,180,0.0,0.0,46,0.00,,SKC,0.00,VWS V14.01,2013-07-16 22:58:00,
2013-07-16 18:03:00,94.1,69.5,30.36,South,180,0.0,0.0,45,0.00,,SKC,0.00,VWS V14.01,2013-07-16 23:03:00,
2013-07-16 18:08:00,94.1,70.2,30.36,SW,225,0.0,0.0,46,0.00,,SKC,0.00,VWS V14.01,2013-07-16 23:08:00,
2013-07-16 18:13:00,93.7,69.8,30.36,South,180,0.0,0.0,46,0.00,,SKC,0.00,VWS V14.01,2013-07-16 23:13:00,
2013-07-16 18:18:00,93.4,69.5,30.36,South,180,0.0,0.0,46,0.00,,SKC,0.00,VWS V14.01,2013-07-16 23:18:00,
2013-07-16 18:23:00,93.0,70.4,30.36,South,180,0.0,0.0,48,0.00,,SKC,0.00,VWS V14.01,2013-07-16 23:23:00,
2013-07-16 18:28:00,92.7,70.1,30.36,SE,135,0.0,0.0,48,0.00,,SKC,0.00,VWS V14.01,2013-07-16 23:28:00,
2013-07-16 18:33:00,92.5,70.6,30.36,South,180,0.0,0.0,49,0.00,,SKC,0.00,VWS V14.01,2013-07-16 23:33:00,
2013-07-16 18:38:00,91.8,69.9,30.36,South,180,0.0,0.0,49,0.00,,SKC,0.00,VWS V14.01,2013-07-16 23:38:00,
2013-07-16 18:43:00,91.4,70.2,30.36,SE,135,0.0,0.0,50,0.00,,SKC,0.00,VWS V14.01,2013-07-16 23:43:00,
2013-07-16 18:48:00,90.9,69.7,30.36,SSE,158,0.0,0.0,50,0.00,,SKC,0.00,VWS V14.01,2013-07-16 23:48:00,
2013-07-16 18:53:00,90.5,69.9,30.36,South,180,0.0,0.0,51,0.00,,SKC,0.00,VWS V14.01,2013-07-16 23:53:00,
2013-07-16 18:58:00,90.1,70.2,30.36,South,180,0.0,0.0,52,0.00,,SKC,0.00,VWS V14.01,2013-07-16 23:58:00,
2013-07-16 19:03:00,89.6,69.7,30.36,SSE,158,0.0,0.0,52,0.00,,SKC,0.00,VWS V14.01,2013-07-17 00:03:00,
2013-07-16 19:08:00,89.2,70.4,30.36,South,180,0.0,0.0,54,0.00,,SKC,0.00,VWS V14.01,2013-07-17 00:08:00,
2013-07-16 19:13:00,88.7,70.5,30.36,SSE,158,0.0,0.0,55,0.00,,SKC,0.00,VWS V14.01,2013-07-17 00:13:00,
2013-07-16 19:18:00,88.3,70.7,30.36,SSE,158,0.0,0.0,56,0.00,,SKC,0.00,VWS V14.01,2013-07-17 00:18:00,
2013-07-16 19:23:00,88.2,70.5,30.36,SSE,158,0.0,0.0,56,0.00,,SKC,0.00,VWS V14.01,2013-07-17 00:23:00,
2013-07-16 19:28:00,87.6,70.5,30.36,SSE,158,0.0,0.0,57,0.00,,SKC,0.00,VWS V14.01,2013-07-17 00:28:00,
2013-07-16 19:33:00,87.3,70.7,30.36,SSE,158,0.0,0.0,58,0.00,,SKC,0.00,VWS V14.01,2013-07-17 00:33:00,
2013-07-16 19:38:00,86.9,70.4,30.36,SSE,158,0.0,0.0,58,0.00,,SKC,0.00,VWS V14.01,2013-07-17 00:38:00,
2013-07-16 19:43:00,86.4,70.8,30.36,SSE,158,0.0,0.0,60,0.00,,SKC,0.00,VWS V14.01,2013-07-17 00:43:00,
2013-07-16 19:48:00,85.8,70.8,30.36,SSE,158,0.0,0.0,61,0.00,,SKC,0.00,VWS V14.01,2013-07-17 00:48:00,
2013-07-16 19:53:00,85.5,71.0,30.36,SSE,158,0.0,0.0,62,0.00,,SKC,0.00,VWS V14.01,2013-07-17 00:53:00,
2013-07-16 19:58:00,84.9,70.9,30.36,SSE,158,0.0,0.0,63,0.00,,SKC,0.00,VWS V14.01,2013-07-17 00:58:00,
2013-07-16 20:03:00,84.6,70.6,30.36,SSE,158,0.0,0.0,63,0.00,,SKC,0.00,VWS V14.01,2013-07-17 01:03:00,
2013-07-16 20:08:00,84.2,70.7,30.36,SSE,158,0.0,0.0,64,0.00,,SKC,0.00,VWS V14.01,2013-07-17 01:08:00,
2013-07-16 20:13:00,83.8,70.8,30.36,SSE,158,0.0,0.0,65,0.00,,SKC,0.00,VWS V14.01,2013-07-17 01:13:00,
2013-07-16 20:18:00,83.5,70.9,30.36,SSE,158,0.0,0.0,66,0.00,,SKC,0.00,VWS V14.01,2013-07-17 01:18:00,
2013-07-16 20:23:00,83.1,70.6,30.36,SSE,158,0.0,0.0,66,0.00,,SKC,0.00,VWS V14.01,2013-07-17 01:23:00,
2013-07-16 20:28:00,82.8,70.7,30.36,SSE,158,0.0,0.0,67,0.00,,SKC,0.00,VWS V14.01,2013-07-17 01:28:00,
2013-07-16 20:33:00,82.6,70.5,30.36,SSE,158,0.0,0.0,67,0.00,,SKC,0.00,VWS V14.01,2013-07-17 01:33:00,
2013-07-16 20:38:00,82.2,70.6,30.36,SSE,158,0.0,0.0,68,0.00,,SKC,0.00,VWS V14.01,2013-07-17 01:38:00,
2013-07-16 20:43:00,81.9,70.7,30.36,SSE,158,0.0,0.0,69,0.00,,SKC,0.00,VWS V14.01,2013-07-17 01:43:00,
2013-07-16 20:48:00,81.9,70.7,30.33,SSE,158,0.0,0.0,69,0.00,,SKC,0.00,VWS V14.01,2013-07-17 01:48:00,
2013-07-16 20:53:00,81.7,70.9,30.33,SSE,158,0.0,0.0,70,0.00,,SKC,0.00,VWS V14.01,2013-07-17 01:53:00,
2013-07-16 20:58:00,81.5,71.2,30.33,SSE,158,0.0,0.0,71,0.00,,SKC,0.00,VWS V14.01,2013-07-17 01:58:00,
2013-07-16 21:03:00,81.3,71.0,30.36,SSE,158,0.0,0.0,71,0.00,,SKC,0.00,VWS V14.01,2013-07-17 02:03:00,
2013-07-16 21:08:00,81.1,71.3,30.36,SSE,158,0.0,0.0,72,0.00,,SKC,0.00,VWS V14.01,2013-07-17 02:08:00,
2013-07-16 21:13:00,81.0,71.1,30.36,SSE,158,0.0,0.0,72,0.00,,SKC,0.00,VWS V14.01,2013-07-17 02:13:00,
2013-07-16 21:18:00,81.0,71.5,30.39,SSE,158,0.0,0.0,73,0.00,,SKC,0.00,VWS V14.01,2013-07-17 02:18:00,
2013-07-16 21:23:00,80.8,71.7,30.39,SSE,158,0.0,0.0,74,0.00,,SKC,0.00,VWS V14.01,2013-07-17 02:23:00,
2013-07-16 21:28:00,80.6,71.6,30.39,SSE,158,0.0,0.0,74,0.00,,SKC,0.00,VWS V14.01,2013-07-17 02:28:00,
2013-07-16 21:33:00,80.4,71.8,30.39,SSE,158,0.0,0.0,75,0.00,,SKC,0.00,VWS V14.01,2013-07-17 02:33:00,
2013-07-16 21:38:00,80.2,71.6,30.39,SSE,158,0.0,0.0,75,0.00,,SKC,0.00,VWS V14.01,2013-07-17 02:38:00,
2013-07-16 21:43:00,80.2,72.0,30.39,SSE,158,0.0,0.0,76,0.00,,SKC,0.00,VWS V14.01,2013-07-17 02:43:00,
2013-07-16 21:48:00,80.1,71.8,30.39,SSE,158,0.0,0.0,76,0.00,,SKC,0.00,VWS V14.01,2013-07-17 02:48:00,
2013-07-16 21:53:00,80.1,72.2,30.39,SSE,158,0.0,0.0,77,0.00,,SKC,0.00,VWS V14.01,2013-07-17 02:53:00,
2013-07-16 21:58:00,79.7,71.9,30.39,SSE,158,0.0,0.0,77,0.00,,SKC,0.00,VWS V14.01,2013-07-17 02:58:00,
2013-07-16 22:03:00,79.5,72.1,30.39,SSE,158,0.0,0.0,78,0.00,,SKC,0.00,VWS V14.01,2013-07-17 03:03:00,
2013-07-16 22:08:00,79.5,72.1,30.39,SSE,158,0.0,0.0,78,0.00,,SKC,0.00,VWS V14.01,2013-07-17 03:08:00,
2013-07-16 22:13:00,79.3,71.9,30.39,SSE,158,0.0,0.0,78,0.00,,SKC,0.00,VWS V14.01,2013-07-17 03:13:00,
2013-07-16 22:18:00,79.2,72.1,30.39,SSE,158,0.0,0.0,79,0.00,,SKC,0.00,VWS V14.01,2013-07-17 03:18:00,
2013-07-16 22:23:00,79.2,72.1,30.39,SSE,158,0.0,0.0,79,0.00,,SKC,0.00,VWS V14.01,2013-07-17 03:23:00,
2013-07-16 22:28:00,79.0,71.9,30.39,SSE,158,0.0,0.0,79,0.00,,SKC,0.00,VWS V14.01,2013-07-17 03:28:00,
2013-07-16 22:33:00,79.0,71.9,30.39,SSE,158,0.0,0.0,79,0.00,,SKC,0.00,VWS V14.01,2013-07-17 03:33:00,
2013-07-16 22:38:00,79.0,71.9,30.39,SSE,158,0.0,0.0,79,0.00,,SKC,0.00,VWS V14.01,2013-07-17 03:38:00,
2013-07-16 22:43:00,78.8,72.1,30.39,SSE,158,0.0,0.0,80,0.00,,SKC,0.00,VWS V14.01,2013-07-17 03:43:00,
2013-07-16 22:48:00,78.8,72.5,30.39,SSE,158,0.0,0.0,81,0.00,,SKC,0.00,VWS V14.01,2013-07-17 03:48:00,
2013-07-16 22:54:00,78.6,72.3,30.39,SSE,158,0.0,0.0,81,0.00,,SKC,0.00,VWS V14.01,2013-07-17 03:54:00,
2013-07-16 22:59:00,78.6,72.7,30.39,SSE,158,0.0,0.0,82,0.00,,SKC,0.00,VWS V14.01,2013-07-17 03:59:00,
2013-07-16 23:01:00,78.6,72.7,30.39,SSE,158,0.0,0.0,82,0.00,,SKC,0.00,VWS V14.01,2013-07-17 04:01:00,
2013-07-16 23:02:00,78.4,72.5,30.41,SSE,158,0.0,0.0,82,0.00,,SKC,0.00,VWS V14.01,2013-07-17 04:02:00,
2013-07-16 23:07:00,78.4,72.5,30.41,SSE,158,0.0,0.0,82,0.00,,SKC,0.00,VWS V14.01,2013-07-17 04:07:00,
2013-07-16 23:12:00,78.3,72.7,30.41,SSE,158,0.0,0.0,83,0.00,,SKC,0.00,VWS V14.01,2013-07-17 04:12:00,
2013-07-16 23:17:00,78.1,72.5,30.41,SSE,158,0.0,0.0,83,0.00,,SKC,0.00,VWS V14.01,2013-07-17 04:17:00,
2013-07-16 23:22:00,77.9,72.7,30.41,SSE,158,0.0,0.0,84,0.00,,SKC,0.00,VWS V14.01,2013-07-17 04:22:00,
2013-07-16 23:27:00,77.7,72.5,30.41,SSE,158,0.0,0.0,84,0.00,,SKC,0.00,VWS V14.01,2013-07-17 04:27:00,
2013-07-16 23:32:00,77.7,72.5,30.41,SSE,158,0.0,0.0,84,0.00,,SKC,0.00,VWS V14.01,2013-07-17 04:32:00,
2013-07-16 23:37:00,77.5,72.7,30.41,SSE,158,0.0,0.0,85,0.00,,SKC,0.00,VWS V14.01,2013-07-17 04:37:00,
2013-07-16 23:42:00,77.4,72.5,30.41,SSE,158,0.0,0.0,85,0.00,,SKC,0.00,VWS V14.01,2013-07-17 04:42:00,
2013-07-16 23:47:00,77.4,72.8,30.41,SSE,158,0.0,0.0,86,0.00,,SKC,0.00,VWS V14.01,2013-07-17 04:47:00,
2013-07-16 23:52:00,77.2,72.7,30.41,SSE,158,0.0,0.0,86,0.00,,SKC,0.00,VWS V14.01,2013-07-17 04:52:00,
2013-07-16 23:55:00,77.2,72.7,30.41,SSE,158,0.0,0.0,86,0.00,,SKC,0.00,VWS V14.01,2013-07-17 04:55:00,
2013-07-16 23:59:00,77.0,72.5,30.41,SSE,158,0.0,0.0,86,0.00,,SKC,0.00,VWS V14.01,2013-07-17 04:59:00,